Reflectivity
-20 -20 -8 3 11 7 8 -20 -20 3 5 7 -11 -3 -11 -5 2 -2 1 -11 -20 -19 -8 -11 9 16 7 4 -1 -1 -7 -20 12 -20 -20 -20 4 2 -14 -20 -20 10 9
-20 -20 14 -11 -20 -1 27 -4 -20 2 -20 6 15 3 5 -2 7 -9 -4 -19 -5 -5 25 2 -19 5 7 2 -3 -2 -20 -20 -20 -20 -20 -20 2 6 -3 -20 5 9 -1
-20 -20 -16 -11 -20 7 -20 -20 -20 8 3 6 8 9 3 3 -3 0 -11 2 -2 -8 3 9 3 3 4 -0 -2 -20 -20 -20 -20 -20 -20 -20 -20 -16 -6 -20 -19 -19 -20
-20 -20 -20 -14 -20 -8 -18 -20 -7 2 3 5 5 3 4 2 0 -6 7 7 7 15 5 -10 -20 -20 -20 -20 -20 -20 -20 -20 -20 -20 -20 -20 -20 -7 -5 11 8 5 1
-20 -6 -20 -16 -20 -20 -20 -20 2 -11 5 -7 0 -4 -1 -12 -13 28 13 -1 13 7 -20 -20 -20 8 -20 -20 15 7 -20 -20 -20 -20 -12 8 -20 -2 -20 1 4 -6 -20
-20 -20 -20 9 -20 -20 -20 -20 5 -16 -20 -20 -20 -20 -20 12 15 -19 -20 -6 5 7 9 -20 -20 -20 -20 -5 -20 -20 -20 -20 -20 -20 -20 -20 -20 -2 16 -19 -20 -20 7
-16 -20 13 -9 -20 -14 -20 7 -20 -20 -20 -20 6 -20 -15 31 -20 -20 8 -9 -7 -5 -12 -7 20 21 -6 -13 -20 -19 -20 -20 -20 -2 -0 -15 -7 -4 -10 -13 -13 13 3
7 13 12 2 -4 -13 5 -4 -3 -20 -13 -9 -11 -20 3 3 -20 -20 -20 -20 -20 2 -20 12 35 38 34 28 4 -0 -19 -20 -20 -20 -20 -20 29 4 -8 8 20 23 -4
3 16 10 8 5 5 5 -20 -19 -20 -20 -20 -20 -1 -10 -20 -20 1 -16 -4 -7 8 15 12 27 29 15 37 27 16 13 -7 9 -20 -20 -20 28 -0 -1 -19 8 -1 -14
15 12 9 -11 7 9 11 4 -12 -20 -20 6 7 0 -20 1 -14 8 7 -10 -4 8 12 26 16 25 16 13 13 26 -4 4 -15 -20 -20 -20 -17 10 -4 5 -16 -8 5
20 6 7 -2 8 2 -8 1 2 -20 -20 -20 -13 -20 -20 3 -5 -20 -20 4 13 17 17 14 18 15 19 5 16 -19 3 28 15 -20 -20 -18 12 -2 3 1 4 -2 -8
16 2 12 0 13 4 11 -1 -12 -15 -20 -20 -20 -20 -12 -15 -2 -8 9 13 15 15 16 -1 -20 -20 -15 7 -5 9 -20 -8 4 -12 -16 7 11 5 -7 -9 -5 -2 -20
12 17 -3 17 13 10 12 -13 -1 -20 -19 -4 2 -19 -11 -20 -16 -20 -20 -20 -19 -18 -20 -20 -20 -16 -20 -20 4 -6 -20 -20 -20 -20 1 -1 -18 3 -2 -14 -20 -11 -19
7 3 -6 -10 14 17 15 -3 -3 -20 0 6 2 -20 -13 -20 -20 -20 -20 -20 -20 -20 -20 -20 -20 -20 -20 -20 -17 -18 -18 -20 -20 -20 -11 9 -17 -0 -5 -18 -5 -8 -1
21 18 -2 10 1 7 -11 1 -11 -20 -1 -7 -19 -20 -20 -20 -20 -20 -20 -20 -20 -20 -20 -20 -20 -20 -20 -20 -20 -4 -20 3 -17 -20 -20 -7 1 8 10 21 28 27 -6
-16 24 12 8 -15 3 14 -1 -18 -8 -20 -20 -20 -18 -20 -20 -20 -20 -20 -20 -20 -20 -20 -20 -20 -20 -20 -20 -20 -20 4 -13 10 24 7 -10 -16 -17 4 11 -4 26 23
-20 8 15 1 5 -15 -20 18 16 6 -6 -20 -20 -20 10 -20 -20 -20 -20 -20 -20 -20 -20 -20 -20 -20 -20 -20 -20 -19 -20 -20 -19 -10 -20 -20 -20 -20 -13 12 15 29 30
0 19 6 1 11 -15 -20 5 -9 -19 3 7 -20 -20 -13 -20 -20 -20 -20 -20 -20 -20 -20 -20 -20 -20 -20 -20 -20 -17 -20 -20 -20 -20 -20 -20 8 -20 -20 -20 -13 34 35
-13 21 13 5 -7 -18 -5 -18 -3 18 14 -17 -20 -20 -20 -20 -20 -20 -20 -20 -20 -20 -20 -20 -20 -20 -20 -20 -20 -20 -20 -20 -20 -20 -20 14 9 -0 -20 -20 8 5 9
4 18 26 31 -3 -12 19 19 20 20 6 -15 -20 -20 -20 -20 -20 -20 -20 -20 -20 -20 -20 -20 -20 -20 -20 -20 -20 -20 -20 -20 -20 -20 -20 -20 -20 -20 -20 -20 -18 -17 13
15 15 23 29 -20 -20 -19 -1 23 11 17 -7 -20 -20 -20 -20 -20 -20 -20 -20 -20 -20 -20 -20 -20 -20 -20 -20 -20 -20 -20 -20 -20 -20 -20 -20 -20 -20 -20 -20 -20 -20 -20
8 15 12 19 27 28 30 21 5 -15 -7 1 -7 -20 -20 -20 -20 -20 -20 -20 -20 -20 -20 -20 -20 -20 -20 -20 -20 -20 -20 -20 -20 -20 -20 -20 -20 -20 -20 -20 -20 -20 -20
8 11 5 14 1 -12 5 13 -11 1 10 -7 -1 -5 -20 -20 -20 -20 -20 -20 -20 -20 -20 -20 -20 -20 -20 -20 -20 -20 -15 -20 -20 -20 -20 -20 -20 -20 -20 -20 -20 -20 -20
5 -16 -11 12 13 21 -13 -14 21 22 -20 -20 0 -20 1 -20 -20 -20 -20 -20 -20 -20 -20 -20 -20 -20 -20 -20 -20 -20 -20 -20 -20 -20 -20 -20 -20 -20 -20 -20 -20 -20 -20
-6 -19 0 4 -9 16 13 23 -20 25 24 -17 23 21 -18 -5 -20 -4 -20 -20 -20 -20 -20 -20 -20 -20 -20 -20 -20 -20 -20 -20 -20 -20 -20 -20 -20 -20 -20 -20 -20 -20 -20
11 11 14 -3 -3 22 19 28 21 34 26 27 -2 8 2 -8 19 -8 -20 -20 -20 -20 -20 -20 -20 -20 -20 -20 -20 -20 -20 -20 -20 -20 -20 -20 -20 -20 -20 -20 -20 -20 -20
Wind_Speed
7 9 17 18 18 18 17 17 15 15 16 17 19 19 19 18 17 18 17 18 18 18 19 19 19 20 20 20 20 20 20 20 19 16 16 16 18 19 19 18 17 14 21
14 12 19 18 18 18 17 17 14 15 16 17 18 19 19 18 18 18 18 19 19 20 21 22 21 21 21 21 20 21 20 19 18 15 14 13 15 18 19 17 18 17 22
18 12 16 18 18 17 17 17 14 15 15 16 17 17 19 19 18 19 19 20 20 22 21 22 22 21 19 20 19 19 20 18 16 14 12 7 10 17 18 17 18 19 21
17 12 15 19 19 18 18 18 16 16 15 15 16 17 18 20 21 21 22 21 21 21 22 21 20 17 17 18 18 19 18 17 14 12 6 6 9 16 17 18 19 20 20
16 14 15 21 21 19 19 17 17 17 16 16 16 17 18 20 21 22 23 22 20 20 19 19 18 18 18 18 19 20 18 16 13 9 7 6 5 13 17 17 17 18 18
17 13 16 22 21 20 19 18 17 18 17 18 17 18 19 22 23 23 22 21 22 21 21 22 21 20 21 21 21 20 18 16 11 7 6 8 6 17 17 17 17 18 18
12 12 16 22 22 20 20 18 19 19 19 18 19 20 21 21 21 21 20 20 22 22 20 24 24 22 22 21 21 20 19 15 8 7 6 6 6 16 16 15 17 17 19
15 13 15 20 21 21 20 19 20 20 20 20 20 20 20 20 21 20 19 20 21 20 22 20 23 22 21 21 21 21 20 16 10 8 6 5 12 16 16 18 16 17 19
15 13 13 13 15 18 19 19 20 20 19 20 21 21 19 19 19 20 19 20 21 22 21 23 22 23 21 21 21 21 21 18 10 6 6 4 12 16 16 16 17 17 17
12 14 14 12 12 13 12 17 19 19 18 18 20 18 16 15 17 18 19 20 20 22 23 23 23 22 23 22 23 20 20 19 10 8 4 4 12 16 15 15 15 16 16
11 14 14 14 13 13 13 11 16 21 21 21 19 20 15 10 11 15 18 20 20 21 23 23 23 22 22 24 22 20 19 7 9 7 5 10 13 14 14 14 14 15 15
14 15 14 14 14 15 10 13 12 13 10 11 12 13 9 11 10 13 16 19 20 22 22 22 21 19 15 8 8 13 7 9 8 8 8 10 12 13 13 13 13 13 14
15 12 15 14 14 14 12 10 7 6 7 7 10 10 11 10 8 7 6 6 6 11 6 10 10 9 11 9 8 8 8 8 6 7 16 21 10 11 11 11 11 13 13
13 15 16 16 14 12 10 8 8 7 8 7 7 11 9 6 8 7 5 5 6 5 9 8 7 9 11 11 11 11 10 8 6 5 13 25 23 10 9 9 9 11 14
13 13 15 16 14 12 11 9 9 9 8 8 8 7 8 8 8 7 5 5 6 6 7 8 8 8 10 10 10 10 10 10 9 6 6 24 25 27 23 6 6 11 14
14 13 15 15 15 12 10 11 9 8 9 9 8 7 8 8 8 8 6 6 6 6 6 7 7 9 8 8 11 10 10 9 9 11 7 8 23 28 28 25 8 11 15
15 16 17 15 15 13 13 9 8 8 9 9 7 7 7 9 10 10 8 6 6 7 10 9 9 8 9 8 12 10 9 11 10 11 8 8 10 20 26 29 26 7 14
15 16 16 14 16 13 12 7 6 7 8 7 7 7 7 8 9 9 8 7 7 7 7 7 7 9 9 9 9 8 9 9 10 10 9 9 9 8 12 26 30 28 14
15 14 15 15 18 16 12 8 7 7 6 6 6 6 6 8 9 8 7 7 8 7 7 7 5 8 8 9 9 8 8 8 8 8 11 11 11 10 8 17 24 28 27
16 14 13 12 15 15 11 9 7 6 5 5 5 6 8 7 9 10 7 8 7 8 7 7 10 6 8 9 10 9 8 7 7 8 8 7 9 10 10 12 9 11 25
14 15 16 15 14 14 11 10 6 7 4 4 4 7 7 7 8 10 7 7 6 8 8 9 9 12 7 6 5 6 7 7 9 7 6 6 8 8 10 9 7 7 8
15 14 15 14 14 12 11 9 5 7 5 4 4 5 6 7 7 9 10 7 7 9 10 8 7 4 3 1 4 3 3 2 5 7 6 6 8 6 9 10 10 10 8
16 16 16 15 14 10 11 10 9 7 8 3 3 4 3 5 5 8 8 8 8 7 8 5 5 6 4 1 3 5 3 3 2 3 6 5 6 6 6 7 9 9 9
13 13 15 15 13 10 11 11 18 10 10 4 5 5 5 5 6 5 6 7 8 7 8 4 4 3 4 5 2 4 5 5 5 1 3 4 5 6 6 5 7 8 8
14 13 13 15 13 12 10 11 12 12 7 5 6 9 7 5 5 6 5 7 7 6 8 8 5 5 3 4 3 3 3 4 4 4 3 1 4 4 4 4 5 5 7
10 13 13 14 11 13 14 9 11 12 15 10 8 8 4 4 4 4 5 6 6 6 8 6 5 5 4 5 3 3 3 3 3 4 4 2 3 2 3 4 5 4 4
Wind_Direction
194 175 165 160 150 142 140 134 130 124 122 123 122 119 115 112 110 110 107 111 107 103 99 98 100 100 98 93 89 86 87 87 87 86 86 84 86 89 88 81 78 79 84
154 169 160 160 150 148 144 133 132 126 126 126 124 119 117 114 112 112 112 113 109 108 105 99 96 97 97 93 92 92 91 89 87 79 75 78 81 87 87 84 86 83 81
156 166 154 159 153 149 142 132 133 124 124 124 123 121 118 114 112 112 110 109 109 107 103 97 96 95 95 96 92 94 92 87 80 75 71 73 85 88 92 92 92 89 85
153 159 154 156 152 148 140 135 134 128 125 124 123 122 121 117 114 110 110 110 110 104 100 98 97 92 96 104 93 91 88 81 69 60 59 65 90 95 91 95 92 90 87
155 154 155 155 148 144 139 140 134 131 126 126 125 125 122 119 114 110 102 101 99 97 98 93 88 89 89 97 95 92 86 78 66 64 63 68 75 94 92 88 88 90 90
158 148 156 152 145 144 142 139 134 126 124 124 123 124 124 116 108 104 99 94 93 87 83 82 80 84 84 85 86 83 77 70 64 56 60 75 80 97 97 98 96 99 94
146 151 152 147 145 145 141 136 133 128 125 127 125 122 123 121 116 110 104 98 92 89 85 92 83 79 76 81 82 75 65 59 62 54 57 64 92 100 93 99 106 99 98
151 156 147 145 145 145 139 136 133 130 127 126 126 125 121 120 118 116 108 103 102 101 105 101 102 94 82 79 78 69 59 50 48 49 50 61 98 97 89 91 99 98 94
157 145 143 141 142 139 138 136 132 129 130 129 123 119 120 118 115 112 106 103 100 104 99 97 96 96 97 94 77 70 60 52 46 32 50 53 93 98 95 91 94 96 96
153 141 143 137 139 136 136 134 127 122 122 121 120 114 105 102 107 109 97 95 98 98 96 93 93 93 86 80 76 67 64 47 38 26 21 73 95 100 100 93 93 92 98
155 147 147 145 141 135 134 119 114 116 113 108 106 105 105 106 96 91 94 91 94 98 96 91 87 83 80 69 66 63 57 45 43 26 6 87 87 93 94 98 98 100 97
160 151 152 150 148 140 131 123 116 120 120 120 120 110 107 103 98 96 89 94 97 96 94 89 82 73 65 61 52 49 54 44 39 35 22 40 82 93 98 100 101 102 103
159 151 148 151 148 140 140 129 126 119 115 109 111 110 109 105 95 85 87 80 83 78 74 76 69 58 59 58 59 51 46 49 34 31 28 29 64 90 95 100 108 108 110
163 155 150 148 142 143 135 131 125 125 128 124 115 118 117 110 103 97 90 81 86 83 84 76 77 76 68 65 63 59 47 43 30 29 27 32 36 68 86 108 117 121 119
163 153 149 145 143 138 131 132 130 130 134 130 122 110 123 118 113 115 98 88 85 93 89 85 82 78 72 69 65 60 52 43 35 31 29 30 39 45 41 43 126 124 122
165 157 150 145 142 134 134 135 134 134 136 137 129 124 114 123 126 121 112 105 96 95 88 88 89 87 77 72 65 59 53 51 44 38 28 24 32 40 36 31 133 124 126
161 159 152 142 139 135 135 130 134 137 137 140 133 125 129 132 134 130 123 111 108 104 104 99 92 89 85 74 67 55 47 37 38 38 31 27 22 26 34 36 46 107 113
150 161 145 147 140 133 127 123 125 130 136 135 134 131 127 119 128 126 126 122 123 115 111 107 107 94 85 77 70 54 49 40 36 33 34 33 27 9 19 34 39 46 81
155 148 143 150 142 133 121 115 108 109 116 114 106 116 115 121 120 117 122 125 124 116 110 115 92 105 105 93 82 68 52 42 34 31 31 32 29 22 16 27 37 42 37
151 149 144 151 136 128 122 114 100 97 87 101 106 119 123 128 123 121 120 123 125 122 118 118 109 96 108 108 92 73 56 41 37 34 23 28 28 28 24 24 22 30 38
140 146 146 146 147 137 138 132 143 134 125 92 92 114 117 129 130 131 128 127 123 131 128 124 114 115 103 120 95 74 55 44 44 29 18 22 27 27 31 28 26 28 20
140 144 143 150 156 161 155 154 121 141 97 96 106 96 117 122 129 135 141 142 129 129 127 141 137 128 95 352 113 104 99 31 39 32 26 22 23 23 33 30 30 32 28
149 148 146 153 149 151 147 124 99 90 98 90 95 99 92 124 132 140 138 144 134 138 146 138 131 126 136 48 75 125 118 179 107 352 23 20 27 31 29 26 23 25 26
159 145 141 139 138 135 145 139 152 157 151 143 142 118 104 90 95 107 125 138 142 131 131 135 129 119 121 133 90 45 48 132 149 110 6 12 29 35 26 33 32 19 15
145 142 138 134 132 140 133 159 147 153 117 121 134 135 124 100 117 116 131 140 148 148 139 144 137 136 100 129 122 132 77 62 72 125 154 329 39 18 29 34 43 30 15
127 137 138 135 141 152 142 166 148 158 145 145 135 127 126 104 122 142 138 142 136 147 138 143 134 136 124 114 117 119 137 152 159 129 120 118 124 11 32 34 40 30 26